Location: Cran-Gévrier
(45.9039°N, 6.1012°E)
Time: 10:49:50
(UTC+00:00)

Cosmos 968 Rocket - Pass Details

Date: 09 February 2023
Orbit: 740 x 770 km, 74.0° (Epoch: 31 March)

Event Time Altitude Azimuth Distance (km) Brightness Sun altitude
Rises 18:27:07 0° 200° (SSW) 3,202 7.0 -16.9°
Reaches altitude 10° 18:29:28 10° 200° (SSW) 2,285 6.2 -17.3°
Maximum altitude 18:34:40 89° 281° (W) 771 3.4 -18.2°
Drops below altitude 10° 18:39:57 10° 22° (NNE) 2,318 5.8 -19.1°
Enters shadow 18:41:12 - 22° (NNE) 2,805 6.2 -19.3°
